This is the latest recevied weather packets stored in our database for station/object iw0uwf-4. If no packets are shown the sender has not sent any weather packets the latest 1 day(s).
| Time | Temp. | Humidity | Pressure | Rain* | Wind** | Luminosity | Snow |
|---|---|---|---|---|---|---|---|
| 1777983124 | 22.78° C | 60% | 1006.5 hPa | 0 mm | 2.24 m/s, 255° | 0 W/m² | - |
| 1777983064 | 22.22° C | 61% | 1006.4 hPa | 0 mm | 2.24 m/s, 269° | 0 W/m² | - |
| 1777983015 | 22.22° C | 64% | 1006.3 hPa | 0 mm | 2.24 m/s, 282° | 0 W/m² | - |
| 1777982944 | 21.67° C | 64% | 1006.4 hPa | 0 mm | 2.24 m/s, 290° | 0 W/m² | - |
| 1777982885 | 21.67° C | 64% | 1006.5 hPa | 0 mm | 2.24 m/s, 288° | 0 W/m² | - |
| 1777982824 | 21.67° C | 65% | 1006.3 hPa | 0 mm | 2.24 m/s, 298° | 0 W/m² | - |
| 1777982764 | 20° C | 66% | 1006.3 hPa | 0 mm | 2.24 m/s, 305° | 0 W/m² | - |
| 1777982703 | 20° C | 66% | 1006.4 hPa | 0 mm | 2.24 m/s, 305° | 0 W/m² | - |
| 1777982643 | 20° C | 66% | 1006.5 hPa | 0 mm | 2.24 m/s, 301° | 0 W/m² | - |
| 1777982583 | 20° C | 66% | 1006.4 hPa | 0 mm | 2.24 m/s, 294° | 0 W/m² | - |
| 1777982523 | 20° C | 66% | 1006.5 hPa | 0 mm | 2.24 m/s, 287° | 0 W/m² | - |
| 1777982463 | 20° C | 66% | 1006.4 hPa | 0 mm | 2.24 m/s, 276° | 0 W/m² | - |
| 1777982403 | 20° C | 66% | 1006.6 hPa | 0 mm | 2.24 m/s, 263° | 0 W/m² | - |
| 1777982343 | 20° C | 67% | 1006.4 hPa | 0 mm | 2.24 m/s, 253° | 0 W/m² | - |
| 1777982283 | 20° C | 67% | 1006.6 hPa | 0 mm | 2.24 m/s, 263° | 0 W/m² | - |
| 1777982224 | 20° C | 67% | 1006.5 hPa | 0 mm | 2.24 m/s, 260° | 0 W/m² | - |
| 1777982164 | 19.44° C | 67% | 1006.6 hPa | 0 mm | 2.24 m/s, 262° | 0 W/m² | - |
| 1777982104 | 19.44° C | 67% | 1006.6 hPa | 0 mm | 2.24 m/s, 259° | 0 W/m² | - |
| 1777982044 | 19.44° C | 68% | 1006.6 hPa | 0 mm | 2.24 m/s, 260° | 0 W/m² | - |
| 1777981984 | 19.44° C | 68% | 1006.6 hPa | 0 mm | 2.24 m/s, 263° | 0 W/m² | - |
| 1777981924 | 19.44° C | 68% | 1006.8 hPa | 0 mm | 2.24 m/s, 268° | 0 W/m² | - |
| 1777981864 | 19.44° C | 68% | 1006.6 hPa | 0 mm | 2.24 m/s, 268° | 0 W/m² | - |
| 1777981805 | 19.44° C | 68% | 1006.6 hPa | 0 mm | 2.24 m/s, 268° | 0 W/m² | - |
| 1777981744 | 19.44° C | 67% | 1006.6 hPa | 0 mm | 2.24 m/s, 269° | 0 W/m² | - |
| 1777981683 | 19.44° C | 67% | 1006.6 hPa | 0 mm | 2.24 m/s, 257° | 0 W/m² | - |
* Rain latest hour (hover to see other rain measurements)
** Current wind speed in m/s (hover to see current wind gust speed)